Language: 


Des rapports , des résumés tant et plus, au choix de chacun....


Données statistiques de la station
Quotidien Rapport Janvier 18, 2017 Unités:  Anglais    Métrique   les deux
« Précédent Jour
Suivant Jour »
Quotidien Hebdomadaire Mensuel Annuel Actuel
  Haut: Bas: Moyen:
Température: 34.9 °F 24.8 °F 28.4 °F
Pt de rosée: 30.2 °F 23.5 °F 26.6 °F
Humidité: 98 % 0 % 93 %
Vitesse du vent: 9.4 mph 0 mph 5.3 mph
Rafales: 11.4 mph - -
Vent:- - ENE
Pression: 30.7 in 0 in -
Précipitation: 0 in    
Historical Graphs
 
 
Données statistiques pour Janvier 18, 2017
Heure Température Point de rosée Pression Vent Vitesse du vent Refales Humidité Pluie (taux horaire)
00:00 27.7 °F 26.2 °F 30.6 in NE 3.8 mph 6 mph 95 % 0 in
00:05 27.7 °F 26.2 °F 30.6 in ENE 3.6 mph 5.4 mph 95 % 0 in
00:11 27.3 °F 25.9 °F 30.6 in ENE 3.1 mph 5.4 mph 94 % 0 in
00:16 27.1 °F 25.7 °F 30.6 in ENE 2.7 mph 4 mph 94 % 0 in
00:21 27.1 °F 25.5 °F 30.6 in NE 3.1 mph 4 mph 94 % 0 in
00:26 27.1 °F 25.7 °F 30.6 in NE 4.3 mph 5.6 mph 94 % 0 in
00:31 27.1 °F 26.1 °F 30.6 in NE 4 mph 5.6 mph 95 % 0 in
00:36 27.1 °F 26.1 °F 30.6 in NE 3.1 mph 6 mph 95 % 0 in
00:41 27.1 °F 25.9 °F 30.6 in NE 3.6 mph 6 mph 95 % 0 in
00:46 27.1 °F 25.9 °F 30.6 in North 4 mph 6.5 mph 95 % 0 in
00:51 27.1 °F 25.9 °F 30.6 in North 6.3 mph 6.5 mph 95 % 0 in
00:56 27.1 °F 25.9 °F 30.6 in North 6.3 mph 7.2 mph 95 % 0 in
01:01 27.1 °F 26.1 °F 30.6 in NNE 6.3 mph 7.2 mph 96 % 0 in
01:06 27.1 °F 26.1 °F 30.6 in NE 4.9 mph 6.5 mph 96 % 0 in
01:11 27.1 °F 26.1 °F 30.6 in NE 3.8 mph 6.3 mph 96 % 0 in
01:16 27 °F 25.5 °F 30.6 in NNE 3.8 mph 5.6 mph 95 % 0 in
01:21 27 °F 25.9 °F 30.6 in NNE 4.3 mph 5.8 mph 96 % 0 in
01:26 27 °F 25.9 °F 30.6 in NE 5.4 mph 6.5 mph 96 % 0 in
01:31 27 °F 25.9 °F 30.6 in NE 5.4 mph 6.5 mph 96 % 0 in
01:36 27 °F 25.9 °F 30.6 in NE 7.2 mph 7.2 mph 96 % 0 in
01:41 27.1 °F 26.1 °F 30.6 in NE 5.8 mph 7.4 mph 96 % 0 in
01:46 27.1 °F 26.1 °F 30.6 in NE 5.6 mph 7.4 mph 96 % 0 in
01:51 27 °F 25.9 °F 30.6 in NE 6.5 mph 7.2 mph 96 % 0 in
01:56 27.1 °F 26.1 °F 30.6 in NE 4.3 mph 7.8 mph 96 % 0 in
02:02 32 °F 26.1 °F 0 in NE 6.5 mph 7.8 mph 0 % 0 in
02:07 27.1 °F 26.2 °F 30.6 in ENE 4.3 mph 7.4 mph 96 % 0 in
02:12 27.1 °F 26.2 °F 30.6 in ENE 5.4 mph 6.9 mph 96 % 0 in
02:17 27.1 °F 26.1 °F 30.6 in NE 5.6 mph 7.2 mph 96 % 0 in
02:22 27.1 °F 26.1 °F 30.6 in NNE 4 mph 7.2 mph 96 % 0 in
02:27 27.1 °F 26.1 °F 30.6 in NE 4.5 mph 6.3 mph 96 % 0 in
02:32 27 °F 25.9 °F 30.6 in North 4.3 mph 6 mph 96 % 0 in
02:37 27 °F 25.9 °F 30.6 in NE 2.7 mph 5.8 mph 96 % 0 in
02:42 26.8 °F 25.7 °F 30.6 in NE 3.6 mph 5.8 mph 96 % 0 in
02:47 26.8 °F 25.7 °F 30.6 in NE 2.9 mph 5.8 mph 96 % 0 in
02:52 26.8 °F 25.7 °F 30.6 in East 2 mph 4.9 mph 96 % 0 in
02:57 26.4 °F 25.3 °F 30.6 in ENE 2 mph 4 mph 96 % 0 in
03:02 26.2 °F 25.2 °F 30.6 in NE 2.7 mph 3.1 mph 96 % 0 in
03:07 25.9 °F 24.6 °F 30.6 in Calm   3.1 mph 95 % 0 in
03:12 25.5 °F 24.4 °F 30.6 in NE 2.5 mph 2.9 mph 95 % 0 in
03:17 25.5 °F 24.3 °F 30.6 in NE 2.2 mph 2.9 mph 95 % 0 in
03:22 25.3 °F 24.1 °F 30.6 in East 1.3 mph 2.9 mph 95 % 0 in
03:27 25.2 °F 23.9 °F 30.6 in ESE 1.3 mph 2.5 mph 95 % 0 in
03:32 25.2 °F 23.9 °F 30.6 in Calm   2.5 mph 95 % 0 in
03:37 24.8 °F 23.5 °F 30.6 in Calm   0.9 mph 95 % 0 in
03:42 24.8 °F 23.5 °F 30.6 in Calm     95 % 0 in
03:47 24.8 °F 23.5 °F 30.6 in NNE 2.7 mph 2.9 mph 95 % 0 in
03:52 24.8 °F 23.7 °F 30.6 in NE 2.9 mph 2.9 mph 96 % 0 in
03:57 25 °F 24.1 °F 30.6 in ENE 4.3 mph 4.7 mph 96 % 0 in
04:02 25.3 °F 24.3 °F 30.6 in ENE 4.3 mph 4.7 mph 96 % 0 in
04:07 25.5 °F 24.6 °F 30.6 in NE 4 mph 4.7 mph 97 % 0 in
04:12 25.5 °F 25 °F 30.6 in NE 3.8 mph 5.8 mph 97 % 0 in
04:17 25.5 °F 25 °F 30.6 in NE 3.8 mph 5.8 mph 97 % 0 in
04:22 25.5 °F 25 °F 30.6 in NE 4.5 mph 5.8 mph 97 % 0 in
04:27 25.9 °F 25.2 °F 30.6 in NE 4 mph 5.8 mph 97 % 0 in
04:32 25.5 °F 25 °F 30.6 in North 6.3 mph 6.3 mph 97 % 0 in
04:37 25.5 °F 25 °F 30.6 in NNE 4.5 mph 6.3 mph 97 % 0 in
04:42 25.9 °F 25.2 °F 30.6 in NE 5.8 mph 6.5 mph 97 % 0 in
04:47 25.9 °F 25.2 °F 30.6 in NE 7.6 mph 7.8 mph 97 % 0 in
04:52 25.9 °F 25.2 °F 30.6 in NNE 6.3 mph 7.8 mph 97 % 0 in
04:57 26.1 °F 25.3 °F 30.6 in NNE 4.9 mph 7.6 mph 97 % 0 in
05:02 25.9 °F 25.2 °F 30.6 in NNE 5.8 mph 7.4 mph 97 % 0 in
05:08 25.9 °F 25.2 °F 30.6 in NNE 4 mph 7.4 mph 97 % 0 in
05:13 25.9 °F 25.2 °F 30.6 in NNE 5.6 mph 6 mph 97 % 0 in
05:18 25.9 °F 25.2 °F 30.6 in NE 6.3 mph 6.3 mph 97 % 0 in
05:23 25.5 °F 25 °F 30.6 in NE 4 mph 6.3 mph 97 % 0 in
05:28 25.5 °F 25 °F 30.6 in NE 4.9 mph 6.3 mph 97 % 0 in
05:33 25.5 °F 25 °F 30.6 in NE 6.3 mph 6.5 mph 97 % 0 in
05:38 25.5 °F 25 °F 30.6 in NE 4 mph 6.5 mph 97 % 0 in
05:43 25.5 °F 25 °F 30.6 in NE 5.4 mph 5.6 mph 97 % 0 in
05:48 25.5 °F 24.6 °F 30.6 in NE 3.6 mph 5.6 mph 97 % 0 in
05:53 25.5 °F 24.6 °F 30.6 in NNE 4.7 mph 5.6 mph 97 % 0 in
05:58 25.5 °F 25 °F 30.6 in NNE 4 mph 6.5 mph 97 % 0 in
06:03 25.5 °F 24.6 °F 30.6 in NE 4.3 mph 6.5 mph 97 % 0 in
06:08 25.5 °F 24.6 °F 30.6 in NE 4.7 mph 5.6 mph 97 % 0 in
06:13 25.5 °F 24.6 °F 30.6 in NNE 5.4 mph 6 mph 97 % 0 in
06:18 25.5 °F 24.6 °F 30.6 in NE 3.4 mph 6 mph 97 % 0 in
06:23 25.5 °F 24.6 °F 30.6 in NNE 4.7 mph 5.8 mph 97 % 0 in
06:28 25.5 °F 24.6 °F 30.6 in NE 4.9 mph 5.8 mph 97 % 0 in
06:33 25.5 °F 24.6 °F 30.6 in NE 3.4 mph 5.8 mph 97 % 0 in
06:38 25.5 °F 25 °F 30.6 in NE 5.6 mph 6 mph 98 % 0 in
06:43 25.5 °F 25 °F 30.6 in NE 5.6 mph 6.3 mph 98 % 0 in
06:48 25.5 °F 25 °F 30.6 in NE 2.9 mph 6.3 mph 98 % 0 in
06:53 25.5 °F 25 °F 30.6 in NNE 5.4 mph 6.5 mph 98 % 0 in
06:58 25.5 °F 25 °F 30.6 in NNE 4.3 mph 7.8 mph 98 % 0 in
07:03 25.5 °F 25 °F 30.6 in NE 4.3 mph 7.8 mph 98 % 0 in
07:08 25.5 °F 25 °F 30.6 in NE 3.8 mph 6.3 mph 98 % 0 in
07:13 25.5 °F 25 °F 30.6 in NE 6.3 mph 7.4 mph 98 % 0 in
07:18 25.3 °F 24.8 °F 30.6 in NE 3.8 mph 7.4 mph 98 % 0 in
07:23 25.3 °F 24.8 °F 30.6 in NE 5.4 mph 6.7 mph 98 % 0 in
07:28 25.3 °F 24.8 °F 30.6 in NE 6 mph 7.2 mph 98 % 0 in
07:33 25.3 °F 24.8 °F 30.6 in NE 5.6 mph 7.2 mph 98 % 0 in
07:38 25.3 °F 24.8 °F 30.6 in NNE 5.4 mph 6.5 mph 98 % 0 in
07:43 25.2 °F 24.6 °F 30.6 in NE 4.5 mph 6.5 mph 98 % 0 in
07:48 25.2 °F 24.4 °F 30.6 in NE 5.4 mph 6.3 mph 97 % 0 in
07:53 25.2 °F 24.6 °F 30.6 in ENE 4.9 mph 7.4 mph 98 % 0 in
07:58 25.2 °F 24.6 °F 30.6 in ENE 6 mph 7.4 mph 98 % 0 in
08:03 25.2 °F 24.6 °F 30.6 in NE 5.4 mph 6.3 mph 98 % 0 in
08:08 25.2 °F 24.6 °F 30.6 in ENE 5.4 mph 6.3 mph 98 % 0 in
08:13 25.2 °F 24.6 °F 30.6 in North 5.6 mph 6.3 mph 98 % 0 in
08:18 25 °F 24.4 °F 30.6 in NNE 5.4 mph 6.3 mph 98 % 0 in
08:23 25 °F 24.4 °F 30.6 in NNE 5.6 mph 6 mph 98 % 0 in
08:28 25 °F 24.4 °F 30.6 in NE 3.8 mph 6 mph 98 % 0 in
08:33 25 °F 24.4 °F 30.6 in NNE 6.9 mph 8.1 mph 98 % 0 in
08:38 25 °F 24.4 °F 30.6 in NE 6.3 mph 8.5 mph 98 % 0 in
08:43 25 °F 24.4 °F 30.6 in NE 6.5 mph 8.5 mph 98 % 0 in
08:48 25 °F 24.4 °F 30.6 in NE 5.8 mph 7.8 mph 98 % 0 in
08:53 25 °F 24.4 °F 30.6 in NE 8.7 mph 8.7 mph 98 % 0 in
08:58 25 °F 24.4 °F 30.6 in East 4.9 mph 8.7 mph 98 % 0 in
09:03 25 °F 24.4 °F 30.6 in East 5.6 mph 7.6 mph 98 % 0 in
09:08 25.2 °F 24.6 °F 30.6 in ENE 5.8 mph 9.6 mph 98 % 0 in
09:13 25.2 °F 24.6 °F 30.6 in ENE 5.8 mph 9.6 mph 98 % 0 in
09:18 25.3 °F 24.8 °F 30.6 in ENE 6.5 mph 7.8 mph 98 % 0 in
09:23 25.3 °F 24.8 °F 30.6 in NE 4.5 mph 8.5 mph 98 % 0 in
09:28 25.5 °F 25 °F 30.6 in NE 6 mph 8.5 mph 98 % 0 in
09:33 25.5 °F 25 °F 30.6 in NE 5.6 mph 7.6 mph 98 % 0 in
09:38 25.5 °F 25 °F 30.6 in NE 5.8 mph 7.2 mph 98 % 0 in
09:43 25.5 °F 25 °F 30.6 in NNE 5.6 mph 7.8 mph 98 % 0 in
09:48 25.5 °F 25 °F 30.6 in ENE 5.4 mph 7.8 mph 98 % 0 in
09:53 25.5 °F 25 °F 30.7 in ENE 5.6 mph 8.1 mph 98 % 0 in
09:58 25.5 °F 25.2 °F 30.7 in NE 8.7 mph 8.7 mph 98 % 0 in
10:03 25.9 °F 25.3 °F 30.7 in NE 7.6 mph 8.7 mph 98 % 0 in
10:08 26.2 °F 25.7 °F 30.7 in ENE 5.6 mph 8.5 mph 98 % 0 in
10:13 26.1 °F 25.5 °F 30.7 in ENE 4.3 mph 8.1 mph 98 % 0 in
10:18 26.2 °F 25.7 °F 30.7 in NNE 6.3 mph 8.1 mph 98 % 0 in
10:23 26.2 °F 25.7 °F 30.7 in NE 5.6 mph 8.7 mph 98 % 0 in
10:28 26.2 °F 25.7 °F 30.7 in ENE 8.5 mph 9.8 mph 98 % 0 in
10:33 26.4 °F 25.9 °F 30.7 in ENE 5.6 mph 9.8 mph 98 % 0 in
10:38 26.4 °F 26.1 °F 30.7 in NNE 8.9 mph 10.1 mph 98 % 0 in
10:43 26.8 °F 26.2 °F 30.7 in NNE 6 mph 10.1 mph 98 % 0 in
10:48 27 °F 26.4 °F 30.7 in ENE 4 mph 8.5 mph 98 % 0 in
10:53 27.1 °F 26.6 °F 30.7 in NNE 7.4 mph 8.5 mph 98 % 0 in
10:58 27.3 °F 27 °F 30.7 in NE 5.8 mph 8.5 mph 98 % 0 in
11:03 27.9 °F 27.3 °F 30.7 in ENE 7.2 mph 8.1 mph 98 % 0 in
11:08 28 °F 27.7 °F 30.6 in ENE 5.8 mph 8.5 mph 98 % 0 in
11:13 28.2 °F 27.9 °F 30.6 in NE 6.5 mph 8.7 mph 98 % 0 in
11:18 28.6 °F 27.9 °F 30.6 in NE 6 mph 8.9 mph 97 % 0 in
11:23 28.9 °F 28.2 °F 30.6 in NE 7.6 mph 8.9 mph 97 % 0 in
11:28 28.9 °F 28.2 °F 30.6 in ENE 7.6 mph 8.5 mph 97 % 0 in
11:33 29.5 °F 28.6 °F 30.6 in NE 7.4 mph 8.9 mph 97 % 0 in
11:38 29.5 °F 28.8 °F 30.6 in NE 7.4 mph 8.9 mph 97 % 0 in
11:43 29.7 °F 28.9 °F 30.6 in ENE 7.4 mph 8.5 mph 97 % 0 in
11:48 29.8 °F 28.9 °F 30.6 in ENE 6.3 mph 8.5 mph 96 % 0 in
11:53 30 °F 29.1 °F 30.6 in ENE 6.3 mph 8.1 mph 96 % 0 in
11:58 30.2 °F 29.1 °F 30.6 in NE 4.3 mph 8.5 mph 96 % 0 in
12:03 30.4 °F 29.1 °F 30.6 in ENE 5.4 mph 8.5 mph 95 % 0 in
12:08 30.6 °F 29.3 °F 30.6 in NE 5.6 mph 8.1 mph 95 % 0 in
12:13 30.7 °F 29.1 °F 30.6 in ENE 7.2 mph 8.1 mph 94 % 0 in
12:18 31.1 °F 29.7 °F 30.6 in East 3.8 mph 8.5 mph 94 % 0 in
12:23 31.3 °F 29.8 °F 30.6 in ENE 6.5 mph 8.5 mph 94 % 0 in
12:28 31.3 °F 29.5 °F 30.6 in ENE 6.7 mph 8.7 mph 93 % 0 in
12:33 31.5 °F 29.7 °F 30.6 in ENE 6.5 mph 8.7 mph 93 % 0 in
12:38 31.8 °F 29.8 °F 30.6 in NE 6.9 mph 8.5 mph 92 % 0 in
12:43 32.2 °F 30 °F 30.6 in NE 4.9 mph 8.1 mph 92 % 0 in
12:48 32.2 °F 30 °F 30.6 in ENE 5.4 mph 8.1 mph 92 % 0 in
12:54 32.4 °F 30 °F 30.6 in ENE 4.9 mph 7.8 mph 91 % 0 in
12:59 32.5 °F 30.2 °F 30.6 in ENE 5.8 mph 7.8 mph 91 % 0 in
13:04 32.7 °F 30 °F 30.6 in ENE 8.1 mph 8.1 mph 90 % 0 in
13:09 32.7 °F 29.8 °F 30.6 in ENE 5.6 mph 8.7 mph 89 % 0 in
13:14 32.9 °F 30 °F 30.6 in ENE 5.8 mph 8.7 mph 89 % 0 in
13:19 33.1 °F 29.8 °F 30.6 in ENE 5.4 mph 8.1 mph 88 % 0 in
13:24 33.3 °F 30 °F 30.6 in ENE 5.8 mph 8.1 mph 88 % 0 in
13:29 33.4 °F 30 °F 30.6 in ENE 4.9 mph 8.1 mph 87 % 0 in
13:34 33.4 °F 29.7 °F 30.6 in East 3.1 mph 7.6 mph 86 % 0 in
13:39 33.4 °F 29.7 °F 30.6 in East 5.8 mph 8.7 mph 86 % 0 in
13:44 33.4 °F 29.5 °F 30.6 in ENE 7.4 mph 9.2 mph 85 % 0 in
13:49 33.4 °F 29.5 °F 30.6 in ENE 6.3 mph 9.4 mph 85 % 0 in
13:54 33.6 °F 29.3 °F 30.6 in East 3.6 mph 9.4 mph 84 % 0 in
13:59 33.8 °F 29.1 °F 30.6 in East 5.4 mph 8.9 mph 83 % 0 in
14:04 34 °F 29.3 °F 30.6 in NE 4.9 mph 7.2 mph 83 % 0 in
14:09 34 °F 29.3 °F 30.6 in NNE 5.6 mph 7.6 mph 83 % 0 in
14:14 34.2 °F 29.5 °F 30.6 in ENE 4.3 mph 7.6 mph 83 % 0 in
14:19 34.2 °F 29.5 °F 30.6 in NE 6 mph 6.9 mph 83 % 0 in
14:24 34.2 °F 29.1 °F 30.6 in ENE 7.6 mph 7.8 mph 82 % 0 in
14:29 34.3 °F 29.5 °F 30.6 in NNE 3.8 mph 7.8 mph 82 % 0 in
14:34 34.3 °F 29.5 °F 30.6 in NNE 7.6 mph 8.9 mph 82 % 0 in
14:39 34.3 °F 28.8 °F 30.6 in NE 7.4 mph 9.8 mph 80 % 0 in
14:44 34 °F 28 °F 30.6 in NE 6.5 mph 9.8 mph 79 % 0 in
14:49 34.2 °F 28.2 °F 30.6 in NE 6.5 mph 8.7 mph 79 % 0 in
14:54 34.3 °F 28.6 °F 30.6 in NNE 7.8 mph 9.4 mph 79 % 0 in
14:59 34.3 °F 28.6 °F 30.6 in NE 8.5 mph 9.4 mph 79 % 0 in
15:04 34.9 °F 28.8 °F 30.6 in NE 7.6 mph 10.7 mph 78 % 0 in
15:09 34.5 °F 28.6 °F 30.6 in NE 7.8 mph 10.7 mph 78 % 0 in
15:14 34.3 °F 27.9 °F 30.6 in NE 6.7 mph 11 mph 77 % 0 in
15:19 34 °F 27.9 °F 30.6 in NE 6.3 mph 11 mph 78 % 0 in
15:24 34 °F 27.9 °F 30.6 in NNE 4.9 mph 9.4 mph 78 % 0 in
15:29 33.8 °F 27.7 °F 30.6 in North 6.5 mph 9.4 mph 78 % 0 in
15:34 33.6 °F 27.9 °F 30.6 in NNE 9.4 mph 9.4 mph 79 % 0 in
15:39 33.6 °F 28 °F 30.6 in NE 7.8 mph 10.5 mph 80 % 0 in
15:44 33.6 °F 28 °F 30.6 in NE 8.7 mph 11 mph 80 % 0 in
15:49 33.6 °F 28 °F 30.6 in NNE 7.8 mph 11 mph 80 % 0 in
15:54 33.6 °F 28 °F 30.6 in ENE 5.8 mph 10.7 mph 80 % 0 in
15:59 33.6 °F 27.9 °F 30.6 in NNE 5.8 mph 10.7 mph 79 % 0 in
16:04 33.6 °F 27.9 °F 30.6 in NE 8.7 mph 11 mph 79 % 0 in
16:09 33.4 °F 27.7 °F 30.6 in NNE 7.4 mph 11 mph 79 % 0 in
16:14 33.3 °F 27.3 °F 30.6 in NNE 8.1 mph 10.5 mph 79 % 0 in
16:19 33.1 °F 27.7 °F 30.6 in NE 8.1 mph 10.3 mph 80 % 0 in
16:25 32.7 °F 27 °F 30.6 in NE 7.8 mph 11.4 mph 79 % 0 in
16:30 32.5 °F 26.8 °F 30.6 in NE 5.4 mph 11.4 mph 79 % 0 in
16:35 32.5 °F 27 °F 30.6 in NE 7.6 mph 11 mph 80 % 0 in
16:41 32.4 °F 27 °F 30.6 in NE 6.3 mph 10.5 mph 80 % 0 in
16:46 32.2 °F 27 °F 30.6 in NNE 7.4 mph 10.5 mph 81 % 0 in
16:51 32 °F 27.1 °F 30.6 in NNE 7.6 mph 8.9 mph 82 % 0 in
16:56 31.8 °F 27 °F 30.6 in NNE 6.5 mph 10.7 mph 82 % 0 in
17:02 31.6 °F 26.8 °F 30.6 in NNE 8.7 mph 10.7 mph 82 % 0 in
17:07 31.5 °F 26.6 °F 30.6 in NE 6.5 mph 10.1 mph 82 % 0 in
17:17 31.1 °F 26.6 °F 30.6 in NE 6.3 mph 7.6 mph 83 % 0 in
17:22 31.1 °F 26.8 °F 30.6 in NNE 7.4 mph 7.6 mph 84 % 0 in
17:27 30.9 °F 27 °F 30.6 in NE 7.8 mph 8.1 mph 85 % 0 in
17:32 30.9 °F 27 °F 30.6 in NNE 6.3 mph 8.5 mph 85 % 0 in
17:37 30.7 °F 27.1 °F 30.6 in NE 5.8 mph 8.5 mph 86 % 0 in
17:42 30.6 °F 27 °F 30.6 in NNE 7.8 mph 8.5 mph 86 % 0 in
17:52 30.4 °F 27 °F 30.6 in NE 8.1 mph 8.1 mph 87 % 0 in
17:57 30.2 °F 27.1 °F 30.6 in NNE 7.4 mph 8.1 mph 88 % 0 in
18:02 30.2 °F 27.1 °F 30.6 in NE 5.6 mph 7.4 mph 88 % 0 in
18:07 30.2 °F 27.1 °F 30.6 in NE 4 mph 6.5 mph 88 % 0 in
18:12 30 °F 27 °F 30.6 in NE 7.2 mph 7.6 mph 88 % 0 in
18:17 30 °F 27.1 °F 30.6 in NE 4.9 mph 7.6 mph 89 % 0 in
18:22 30 °F 27.1 °F 30.6 in NE 5.4 mph 6.5 mph 89 % 0 in
18:28 29.8 °F 27 °F 30.6 in NNE 5.6 mph 8.7 mph 89 % 0 in
18:33 29.8 °F 27.3 °F 30.6 in NE 7.6 mph 8.7 mph 90 % 0 in
18:38 29.7 °F 27.1 °F 30.6 in NNE 6.3 mph 8.5 mph 90 % 0 in
18:43 29.7 °F 27.1 °F 30.6 in NE 6 mph 8.5 mph 90 % 0 in
18:48 29.7 °F 27.1 °F 30.6 in NE 5.8 mph 8.1 mph 90 % 0 in
18:53 29.5 °F 27 °F 30.6 in NE 4.9 mph 8.1 mph 90 % 0 in
18:58 29.5 °F 27 °F 30.6 in NNE 6.5 mph 6.5 mph 90 % 0 in
19:03 29.5 °F 27.1 °F 30.6 in NE 5.4 mph 6.5 mph 91 % 0 in
19:08 29.5 °F 27.1 °F 30.6 in NE 6.3 mph 6.5 mph 91 % 0 in
19:13 29.5 °F 27.1 °F 30.6 in NE 4.9 mph 7.8 mph 91 % 0 in
19:18 29.5 °F 27.1 °F 30.6 in NNE 4 mph 7.8 mph 91 % 0 in
19:23 29.5 °F 27.1 °F 30.6 in NNE 6.3 mph 7.8 mph 91 % 0 in
19:28 29.5 °F 27.3 °F 30.6 in NNE 5.8 mph 7.8 mph 92 % 0 in
19:33 29.1 °F 27.1 °F 30.6 in NNE 4.9 mph 6.5 mph 92 % 0 in
19:38 29.1 °F 27.1 °F 30.6 in NNE 4.7 mph 6.5 mph 92 % 0 in
19:43 29.1 °F 27.1 °F 30.6 in NNE 6.7 mph 7.2 mph 92 % 0 in
19:48 28.9 °F 27 °F 30.6 in NNE 6.5 mph 7.8 mph 92 % 0 in
19:53 28.9 °F 27.1 °F 30.6 in NNE 6.3 mph 7.8 mph 93 % 0 in
19:58 28.9 °F 27.1 °F 30.6 in NE 7.8 mph 8.7 mph 93 % 0 in
20:03 28.8 °F 27.1 °F 30.6 in NNE 4.7 mph 8.7 mph 93 % 0 in
20:08 28.8 °F 27.1 °F 30.6 in NE 5.4 mph 7.8 mph 93 % 0 in
20:13 28.8 °F 27.1 °F 30.6 in NE 4 mph 7.8 mph 93 % 0 in
20:18 28.6 °F 27 °F 30.6 in NNE 4 mph 6.5 mph 93 % 0 in
20:23 28.6 °F 27 °F 30.6 in NE 5.6 mph 7.2 mph 93 % 0 in
20:28 28.6 °F 27 °F 30.6 in NE 5.8 mph 7.2 mph 93 % 0 in
20:33 28.6 °F 27.1 °F 30.6 in NE 6 mph 7.8 mph 94 % 0 in
20:38 28.6 °F 27.1 °F 30.6 in ENE 6 mph 7.8 mph 94 % 0 in
20:43 28.6 °F 27 °F 30.6 in NNE 6 mph 6.5 mph 94 % 0 in
20:48 28.6 °F 27 °F 30.6 in NE 4.9 mph 6 mph 94 % 0 in
20:53 28.6 °F 27 °F 30.6 in NE 4.7 mph 6.3 mph 94 % 0 in
20:58 28.6 °F 27 °F 30.6 in North 2.9 mph 6.3 mph 94 % 0 in
21:03 28.6 °F 27 °F 30.6 in NNE 4.9 mph 5.8 mph 94 % 0 in
21:08 28.2 °F 26.8 °F 30.6 in NE 3.1 mph 6.3 mph 94 % 0 in
21:13 28 °F 26.6 °F 30.6 in NNE 3.8 mph 6.3 mph 94 % 0 in
21:18 28 °F 26.6 °F 30.6 in NNE 5.4 mph 6 mph 94 % 0 in
21:23 27.9 °F 26.4 °F 30.6 in NE 4.5 mph 6.5 mph 94 % 0 in
21:28 27.9 °F 26.4 °F 30.6 in North 2.9 mph 6.5 mph 94 % 0 in
21:33 27.9 °F 26.4 °F 30.6 in NE 4.7 mph 5.8 mph 94 % 0 in
21:38 27.9 °F 26.8 °F 30.6 in NE 5.6 mph 6.3 mph 95 % 0 in
21:43 27.9 °F 26.8 °F 30.6 in NNE 4.3 mph 7.6 mph 95 % 0 in
21:48 27.9 °F 26.8 °F 30.6 in NNE 4.9 mph 7.6 mph 95 % 0 in
21:53 27.9 °F 26.8 °F 30.6 in NNE 5.4 mph 7.8 mph 95 % 0 in
21:58 27.9 °F 26.8 °F 30.6 in NE 6.5 mph 7.8 mph 95 % 0 in
22:03 27.9 °F 26.8 °F 30.6 in NNE 5.6 mph 7.8 mph 95 % 0 in
22:08 27.9 °F 26.8 °F 30.6 in NE 4.9 mph 7.8 mph 95 % 0 in
22:13 27.9 °F 27 °F 30.6 in NE 3.8 mph 7.6 mph 96 % 0 in
22:18 27.9 °F 27 °F 30.6 in NE 4.9 mph 7.2 mph 96 % 0 in
22:23 27.9 °F 27 °F 30.6 in NE 6.5 mph 7.8 mph 96 % 0 in
22:28 28 °F 27.1 °F 30.6 in ENE 4 mph 7.8 mph 96 % 0 in
22:33 27.9 °F 27 °F 30.6 in NNE 3.8 mph 6.5 mph 96 % 0 in
22:38 28 °F 27.1 °F 30.6 in NE 4.9 mph 5.8 mph 96 % 0 in
22:43 28 °F 27.1 °F 30.6 in NE 3.4 mph 5.8 mph 96 % 0 in
22:48 28 °F 27.1 °F 30.6 in ENE 3.8 mph 4.9 mph 96 % 0 in
22:53 28 °F 27.1 °F 30.6 in NE 5.4 mph 5.4 mph 96 % 0 in
22:58 28 °F 27.1 °F 30.6 in NE 4 mph 5.4 mph 96 % 0 in
23:03 28 °F 27.1 °F 30.6 in NE 4 mph 6.3 mph 96 % 0 in
23:08 28 °F 27.1 °F 30.6 in ENE 4.3 mph 6.7 mph 96 % 0 in
23:13 28 °F 27.1 °F 30.6 in NE 4.9 mph 6.7 mph 96 % 0 in
23:18 28 °F 27.1 °F 30.6 in NE 5.6 mph 6 mph 96 % 0 in
23:23 27.9 °F 26.8 °F 30.6 in NE 4.9 mph 6 mph 95 % 0 in
23:28 27.9 °F 26.8 °F 30.6 in NE 3.6 mph 5.8 mph 95 % 0 in
23:33 27.9 °F 26.4 °F 30.6 in NE 4 mph 5.8 mph 95 % 0 in
23:38 27.9 °F 26.4 °F 30.6 in NE 4 mph 5.6 mph 95 % 0 in
23:43 27.9 °F 26.4 °F 30.6 in ENE 4.3 mph 5.6 mph 95 % 0 in
23:48 27.7 °F 26.2 °F 30.6 in NE 4 mph 5.6 mph 95 % 0 in
23:53 27.7 °F 26.2 °F 30.6 in NE 4 mph 4.9 mph 95 % 0 in
23:58 27.7 °F 26.2 °F 30.6 in NE 4.3 mph 4.7 mph 95 % 0 in
Le Gheer Warneton
Courtoisie de Weather Underground - 2.25 mb

Mise a jour : 17/12/2017 22:35:11
Généré par Cumulus 1.9.4 (1099)